loading
DOY 175 | 2024-06-23T18:54:18Z

THOR ABLESTAR DEB, 253

Orbit data source: Space-Track

THOR ABLESTAR DEB, 253 is space debris in LEO originally from a launch on Thu, 29 Jun 1961 UTC launched from the Air Force Eastern Test Range (AFETR). Debris objects in space refer to the collection of defunct objects orbiting the Earth. Examples of debris include non-operational satellites, rocket bodies, and fragments generated from explosions, collisions, or faulty payload assembly.

Loading next visibility...
Loading greatness...
THOR ABLESTAR DEB details
NORAD ID253
COSPAR ID
1961-015CE
Orbit
LEO
Last TLE update1 day ago
Origin
Flag of USUSAF SSD (US)
ManufacturerUnknown
BusUnknown
MotorUnknown
MassWet unknown, Dry mass unknown
Launch date (UTC)
1961-06-29 (63 years ago)
Launch vehicleUnknown
Launch site
Air Force Eastern Test Range (AFETR)
Object type
Payload
Rocket body
Debris
Radar Cross SectionSmall (<0.1 m²)
Predictive object data (real-time)
Latitude-23.87092°
Longitude88.8909°
Altitude626.231 km
Speed7.555 km/s
Apparent Right ascension18h 24m 37s
Apparent Declination-31° 26' 11"
Sunlit
Object is in full shadow
Predictive observer data (real-time)
Local Sidereal Time06:03:33
Azimuth331.65° NNW
Elevation-80.507°
Doppler factor1
Orbital elements
Apogee655.258 km
Perigee614.19 km
Semi-major axis7,012.861 km
Eccentricity0.002928
Inclination66.9251°
RAAN293.8133°
Arg. of periapsis307.6652°
True anomaly52.44725°
Mean anomaly52.1816°
Mean motion3.69573 °/min
BSTAR0.0016959
Period97.41 mins
Definitive object data (Epoch: 2024-06-22T18:39:24.852Z)
Latitude-0.00009°
Longitude102.52387°
Altitude626.026 km
Speed7.553 km/s
True Right ascension19h 35m 15s
True Declination0° 00' 00"
Sunlit
Object was in full shadow at TLE epoch
TLE from 1 day ago
0 THOR ABLESTAR DEB
1 00253U 61015CE  24174.77737098  .00012192  00000-0  16959-2 0  9996
2 00253  66.9251 293.8133 0029280 307.6652  52.1816 14.77757399271158
Epoch: 2024-06-22T18:39Z
No data available

THOR ABLESTAR DEB Visibility forecast

Observer location: 39.9160978°, -105.1181434, 0m alt.

THOR ABLESTAR DEB is not visible in the next 10 days
Span
Click to sort rows by Start time (UTC) header in descending order
Start Az.
Max El. time (UTC)
Max El. Az.
Max El.
End time (UTC)
End Az.